Cortez, CO

2:30 AM MST on December 14, 2017 (GMT -0700)
Cortez Municipal

Weather History for KCEZ - March, 2013

Change the Weather History Date:

Wednesday, March 20, 2013

  Actual Average Record
Temperature  
Mean Temperature 39 °F 40 °F  
Max Temperature 57 °F 56 °F 77 °F (2004)
Min Temperature 20 °F 25 °F 12 °F (2014)
Degree Days  
Heating Degree Days 26 25  
Month to date heating degree days 467 544  
Since 1 July heating degree days 5333 5274  
Cooling Degree Days 0 0  
Month to date cooling degree days 0 0  
Year to date cooling degree days 0 0  
Moisture  
Dew Point 18 °F    
Average Humidity 45    
Maximum Humidity 68    
Minimum Humidity 22    
Precipitation  
Precipitation 0.00 in 0.03 in 0.28 in (2005)
Month to date precipitation 0.30 0.79  
Year to date precipitation 2.51 2.68  
Sea Level Pressure  
Sea Level Pressure 30.06 in    
Wind  
Wind Speed 5 mph (East)    
Max Wind Speed 18 mph    
Max Gust Speed 23 mph    
Visibility 10 miles    
Events      
T = Trace of Precipitation, MM = Missing Value Source: NWS Daily Summary

Daily Weather History Graph

Daily Weather History Graph

Search for Another Location

Airport or City:

Trip Planner

Search our weather history database for the weather conditions in past years. The results will help you decide how hot, cold, wet, or windy it might be!

Date:

Astronomy

Mar. 20, 2013 Rise Set
Actual Time 7:17 AM MDT 7:26 PM MDT
Civil Twilight 6:51 AM MDT 7:52 PM MDT
Nautical Twilight 6:21 AM MDT 8:23 PM MDT
Astronomical Twilight 5:50 AM MDT 8:54 PM MDT
Moon 1:11 PM MDT (3/20) 2:52 AM MDT (3/20)
Length of Visible Light 13h 01m
Length of Day
12h 09m
First Quarter, 60% of the Moon is Illuminated
Mar 20
First Quarter
Mar 27
Full
Apr 2
Last Quarter
Apr 10
New
Apr 18
First Quarter

Hourly Weather History & Observations

Time (MDT) Temp. Windchill Dew Point Humidity Pressure Visibility Wind Dir Wind Speed Gust Speed Precip Events Conditions
12:53 AM 26.1 °F 19.4 °F 12.0 °F 55% 30.19 in 10.0 mi East 5.8 mph - N/A   Clear
1:53 AM 24.1 °F 17.0 °F 12.0 °F 60% 30.19 in 10.0 mi ENE 5.8 mph - N/A   Clear
2:53 AM 24.1 °F - 12.0 °F 60% 30.18 in 10.0 mi Calm Calm - N/A   Clear
3:53 AM 23.0 °F 15.8 °F 12.0 °F 63% 30.15 in 10.0 mi NE 5.8 mph - N/A   Clear
4:53 AM 21.9 °F - 12.0 °F 66% 30.17 in 10.0 mi Calm Calm - N/A   Clear
5:53 AM 21.9 °F 14.5 °F 12.9 °F 68% 30.18 in 10.0 mi ENE 5.8 mph - N/A   Clear
6:53 AM 21.9 °F 15.7 °F 12.0 °F 66% 30.19 in 10.0 mi East 4.6 mph - N/A   Clear
7:53 AM 26.1 °F 21.9 °F 14.0 °F 60% 30.20 in 10.0 mi ENE 3.5 mph - N/A   Clear
8:53 AM 35.1 °F - 16.0 °F 46% 30.19 in 10.0 mi Calm Calm - N/A   Clear
9:53 AM 41.0 °F - 15.1 °F 35% 30.15 in 10.0 mi Calm Calm - N/A   Clear
10:53 AM 48.0 °F - 12.9 °F 24% 30.12 in 10.0 mi Variable 3.5 mph - N/A   Clear
11:53 AM 54.0 °F - 15.1 °F 22% 30.09 in 10.0 mi South 6.9 mph - N/A   Partly Cloudy
12:53 PM 54.0 °F - 15.1 °F 22% 30.07 in 10.0 mi SSW 4.6 mph - N/A   Partly Cloudy
1:53 PM 55.9 °F - 17.1 °F 22% 30.03 in 10.0 mi Variable 6.9 mph - N/A   Scattered Clouds
2:53 PM 55.9 °F - 18.0 °F 23% 29.99 in 10.0 mi SW 6.9 mph - N/A   Overcast
3:53 PM 55.9 °F - 21.9 °F 27% 29.96 in 10.0 mi SE 10.4 mph 21.9 mph N/A   Overcast
4:53 PM 55.9 °F - 21.0 °F 26% 29.95 in 10.0 mi Calm Calm - N/A   Overcast
5:53 PM 51.1 °F - 28.0 °F 41% 29.94 in 10.0 mi East 17.3 mph 20.7 mph N/A   Overcast
6:53 PM 50.0 °F - 28.9 °F 44% 29.94 in 10.0 mi NE 9.2 mph - N/A   Overcast
7:53 PM 48.0 °F - 28.9 °F 48% 29.92 in 10.0 mi Calm Calm - N/A   Overcast
8:53 PM 46.9 °F - 28.0 °F 48% 29.88 in 10.0 mi ENE 9.2 mph - N/A   Overcast
9:53 PM 46.9 °F - 27.0 °F 46% 29.85 in 10.0 mi ENE 5.8 mph - N/A   Overcast
10:53 PM 50.0 °F - 25.0 °F 38% 29.79 in 10.0 mi ESE 5.8 mph - N/A   Overcast